Find PAS 8

NORAD ID: 25522 Int'l Des: 1998-065 Owner: PAN Country: US operational
HEO

当前视图

正在加载3D地球...

About PAS 8

PAS 8 (NORAD 25522) is a satellite launched Nov 4, 1998 by PAN of US. It operates in HEO orbit with a mass of 3800.00 kg.

即将过境

Passes for default location (London). Set your location on the main map for personalized predictions.

高度历史

Loading altitude history...

两行轨道根数

1 25522U 98065A 26195.28115613 -.00000148 00000-0 00000-0 0 9998
2 25522 9.2147 63.3297 0283985 307.2139 57.0127 0.95185221 45072
Epoch: Jul 14, 2026 • Age: 17 hours

当前状态

高度 36652.0 km
远地点 / 近地点 N/A
速度 3.07 km/s
星下点 -8.45°S, 18.05°E
发射日期 Nov 4, 1998
运行时间 27.6 years
类型 other

技术详情

分类 Payload
质量 3800.00 kg
干质量 1400.00 kg
总质量 3800.00 kg
长度 6.10 m
直径 2.40 m
跨度 26.00 m
形状 Box + 2 Pan
制造商 LOR
平台类型 FS-1300
阶段状态 Unknown Active Status
所有者/国家 PAN/US

Most Searched